Location: Cherry Springs State Park
(41.6616°N, 77.8240°W)
Time: 14:22:20
(UTC-04:00)

Daily predictions for brighter satellites

Satellite Brightness Start Highest point End
(mag) Time Altitude Azimuth Time Altitude Azimuth Time Altitude Azimuth
Cosmos 1812 2.7 20:56:36 10° S 21:00:26 77° E 21:04:17 10° N
YAOGAN 6 2.9 20:57:58 10° S 21:01:40 72° W 21:05:23 10° NNW
Cosmos 1802 Rocket 4.1 20:57:38 10° S 21:03:55 82° E 21:10:21 10° N
Cosmos 1666 4.4 21:01:46 10° NNE 21:04:29 18° ENE 21:07:12 10° ESE
Cosmos 1833 Rocket 3.1 20:58:57 10° SSW 21:04:33 69° WNW 21:10:11 10° NNE
Cosmos 1743 4.5 21:03:11 10° NNE 21:05:45 17° ENE 21:08:18 10° ESE
Cosmos 2369 4.5 21:02:34 10° NNW 21:08:04 52° WSW 21:13:32 10° S
H-2A R/B 3.3 21:04:15 10° ESE 21:08:04 23° ENE 21:11:57 10° NNE
Cosmos 304 Rocket 4.4 21:04:42 10° SSE 21:09:00 34° ESE 21:13:21 10° NE
DNEPR-1 R/B 4.2 21:06:07 10° S 21:09:55 34° ESE 21:14:05 10° NE
Abrixas rocket 4.1 21:12:58 10° SSE 21:14:26 13° SE 21:15:54 10° ESE
Cosmos 44 4.4 21:12:07 10° NW 21:17:14 48° WSW 21:22:24 10° S
ATLAS CENTAUR R/B 1.8 21:14:09 10° NNW 21:18:39 67° NE 21:23:09 11° SE
ERS-2 2.9 21:15:37 10° S 21:19:13 54° W 21:22:51 10° NNW
NOSS 3-2 (A) 3.7 21:14:55 10° S 21:20:24 44° ESE 21:26:25 10° NE
SL-24 R/B 4.4 21:15:43 10° S 21:20:32 82° E 21:25:41 10° N
USA 234 3.3 21:15:07 10° NE 21:21:43 89° NW 21:28:18 10° SW
NOSS 3-2 (C) 4.0 21:18:42 10° S 21:23:52 33° ESE 21:29:27 10° NE
Cosmos 1536 4.4 21:20:22 10° NNW 21:24:07 36° W 21:27:50 10° SSW
Okean 1 Rocket 3.2 21:20:48 10° N 21:25:07 57° E 21:29:22 10° SSE
Cosmos 1975 Rocket 4.1 21:22:29 10° SSE 21:26:05 27° E 21:29:44 10° NNE
Cosmos 1242 Rocket 4.0 21:23:10 10° NNE 21:26:09 23° ENE 21:28:22 14° ESE
Cosmos 1674 Rocket 3.7 21:22:40 10° S 21:27:06 80° W 21:31:36 10° N
Cosmos 1378 Rocket 3.6 21:23:15 10° S 21:27:30 61° E 21:31:46 10° NNE
Cosmos 2233 Rocket 4.3 21:22:38 10° SSE 21:28:29 48° E 21:34:24 10° NNE
Atlas Centaur 2 2.9 21:29:09 10° SSW 21:31:06 14° S 21:32:12 12° SSE
Resurs 01 Rocket 2.4 21:27:00 10° S 21:31:18 53° W 21:35:38 10° NNW
ERS-1 Rocket 4.0 21:27:59 13° SE 21:31:50 31° ENE 21:36:14 10° N
Tiangong 2 2.3 21:30:22 10° SSW 21:32:55 23° SSE 21:34:27 16° ESE
Cosmos 2082 Rocket 3.5 21:29:18 10° SW 21:34:42 45° WNW 21:40:10 10° NNE
Cosmos 1975 3.1 21:31:07 10° N 21:35:04 49° E 21:38:14 15° SSE
NOAA 11 4.4 21:31:47 10° S 21:37:15 72° WSW 21:42:44 10° NNW
COSMOS 2487 2.6 21:33:47 10° SSW 21:37:16 76° WNW 21:40:48 10° NNE
Cosmos 2322 Rocket 3.2 21:32:53 10° N 21:37:58 34° ENE 21:42:00 15° ESE
CZ-4B DEB 4.4 21:38:29 12° SSE 21:41:39 90° ENE 21:45:10 10° NNW
SL-16 R/B 2.9 21:39:10 10° N 21:44:30 40° ENE 21:48:26 17° ESE
Timation 2 Rocket 4.0 21:44:32 10° S 21:50:15 51° ESE 21:56:04 10° NE
ARGOS 3.1 21:49:16 14° SSE 21:53:52 78° ENE 21:59:17 10° N
Meteor 1-19 Rocket 4.4 21:49:58 10° S 21:55:43 58° E 22:01:32 10° NNE
SPOT 5 3.8 21:54:03 19° ESE 21:56:16 29° ENE 22:00:09 10° N
GPS 2-04 Rocket1 3.9 21:54:26 10° WSW 21:58:08 29° SSW 21:59:43 23° SSE
CENTAUR R/B 3.3 21:55:22 18° SSE 21:58:19 26° ESE 22:03:36 10° NE
SJ 16-02 3.6 22:01:04 10° NNE 22:03:04 13° ENE 22:05:00 10° E
Helios 1A 3.7 22:03:55 25° ESE 22:05:44 38° ENE 22:09:36 10° N
ATLAS 3B R/B 3.1 22:00:43 10° SW 22:07:53 68° NW 22:14:48 10° NNE
Cosmos 1464 Rocket 4.4 22:09:53 21° SSE 22:13:50 47° E 22:19:55 10° NNE
USA 32 4.1 22:12:07 10° N 22:17:19 61° E 22:20:04 27° SSE
Cosmos 2084 3.6 22:17:48 18° S 22:20:44 48° ESE 22:24:44 10° NE
Terra 3.0 22:20:01 23° ESE 22:21:42 29° ENE 22:25:46 10° N
Lacrosse 5 rocket 3.6 22:21:37 10° NNW 22:24:46 19° NNE 22:27:48 10° ENE
Cosmos 1937 Rocket 3.4 22:20:22 10° NNW 22:25:31 74° ENE 22:27:55 32° SSE
Cosmos 468 Rocket 4.2 22:20:29 10° SSW 22:25:46 74° WNW 22:31:02 10° NNE
USA 245 2.8 22:25:00 46° S 22:25:51 86° WSW 22:29:42 10° NNW
Shenzhou-11 Module 2.1 22:23:16 10° W 22:26:14 67° N 22:26:59 44° ENE
Aureole 2 Rocket 3.5 22:24:08 10° N 22:26:40 25° ENE 22:26:40 25° ENE
ISS -3.1 22:27:03 10° WSW 22:30:16 54° NNW 22:33:30 10° NE
Cosmos 2360 Rocket 3.0 22:25:17 10° N 22:30:33 39° ENE 22:33:03 26° ESE
SL-08 RB Rocket 4.2 22:29:44 22° S 22:32:26 54° W 22:36:55 10° NNW
CZ-4C R/B 4.4 22:26:56 10° NNW 22:32:37 26° NE 22:38:52 10° E
CARTOSAT-1 4.3 22:31:49 32° ESE 22:32:54 38° ENE 22:36:53 10° N
Cosmos 1980 Rocket 3.8 22:28:15 10° NW 22:32:59 28° WSW 22:37:31 11° SSW
Cosmos 2219 Rocket 4.3 22:33:38 10° NNE 22:36:45 15° NE 22:39:52 10° E
Meteor 2-9 Rocket 4.1 22:32:42 10° N 22:38:03 84° W 22:40:44 31° S
Cosmos 1763 Rocket 3.5 22:34:07 14° SSW 22:38:43 90° WNW 22:44:03 10° NNE
Cosmos 1666 4.4 22:36:45 10° NNW 22:40:10 30° W 22:42:32 16° SW
Cosmos 841 Rocket 3.4 22:37:55 29° S 22:40:33 66° ESE 22:45:48 10° NNE
Cosmos 1743 4.3 22:38:13 10° NNW 22:41:37 31° W 22:43:46 18° SW
Cosmos 2333 Rocket 4.4 22:39:08 10° N 22:42:23 15° NE 22:45:38 10° E
Cosmos 540 Rocket 4.0 22:41:48 37° ESE 22:42:32 39° ESE 22:47:20 10° NE
SPOT 1/Viking Rocket 3.5 22:40:44 35° SSE 22:42:59 86° ENE 22:48:10 10° NNW
Okean 2 4.3 22:45:24 32° E 22:45:24 32° E 22:48:56 10° NNE
COSMOS 2428 4.3 22:41:43 10° N 22:46:13 23° NE 22:48:47 17° E
H-2A R/B 2.9 22:44:13 20° SSW 22:47:13 41° W 22:51:56 10° NNW
CZ-2C R/B 3.8 22:42:45 10° NE 22:47:30 27° E 22:47:57 27° ESE
DMSP B5D2-2 4.2 22:43:15 10° N 22:48:34 79° WNW 22:52:04 22° SSW
Meteor 2-4 Rocket 3.8 22:45:41 20° SSW 22:49:32 72° W 22:55:04 10° N
Abrixas rocket 3.9 22:47:12 10° WSW 22:48:33 23° WSW 22:48:33 23° WSW
Helios 1B rocket 2.3 22:47:38 10° NNE 22:51:49 83° ESE 22:52:46 52° S
Cosmos 1340 Rocket 2.9 22:51:32 42° SSW 22:52:47 75° W 22:56:52 10° N
IGS 5A 3.4 22:53:24 56° ESE 22:54:01 66° ENE 22:58:10 10° N
Cosmos 1455 Rocket 3.3 22:50:27 10° NNW 22:54:45 63° W 22:56:06 41° SSW
Cosmos 1833 4.2 22:53:11 34° S 22:55:38 65° ESE 23:01:17 10° NNE
ATLAS CENTAUR R/B 4.0 22:54:37 10° WNW 22:57:13 15° WSW 22:59:24 11° SW
Cosmos 1025 Rocket 3.7 22:59:55 38° E 22:59:55 38° E 23:03:46 10° NNE
Cosmos 1356 3.6 23:02:48 65° W 23:02:55 66° W 23:06:24 10° N
Spot 1 3.8 23:04:56 67° S 23:05:28 85° WSW 23:09:34 10° NNW
Tiangong 2 3.7 23:06:14 10° WSW 23:06:44 14° WSW 23:06:44 14° WSW
ERS-1 Rocket 4.4 23:07:59 20° SW 23:10:33 31° W 23:14:59 10° NW
BREEZE M DEB (TANK) 3.0 23:06:21 10° WNW 23:13:09 45° SW 23:13:14 45° SW
Cosmos 2322 3.9 23:07:52 10° NNW 23:13:35 62° ENE 23:15:05 46° ESE
Meteor 1-29 3.3 23:10:17 10° N 23:13:38 65° WNW 23:13:38 65° WNW
NOSS 3-2 (C) 4.5 23:08:46 10° WSW 23:14:30 46° NW 23:20:52 10° NNE
Meteor 1-15 Rocket 4.2 23:09:16 10° N 23:15:03 83° W 23:16:45 48° S
BREEZE-M R/B 4.4 23:13:14 10° WNW 23:15:41 22° NNW 23:16:40 18° NNE
Cosmos 1125 Rocket 3.8 23:11:20 10° N 23:16:30 53° ENE 23:17:27 46° ESE
Cosmos 292 Rocket 4.2 23:16:51 29° SW 23:19:05 58° WNW 23:23:48 10° NNE
Cosmos 2322 Rocket 3.2 23:16:55 10° NW 23:21:59 35° WSW 23:23:50 28° SW
Cosmos 1092 Rocket 4.1 23:16:47 10° N 23:23:05 63° E 23:24:43 48° SE
Cosmos 1066 Rocket 4.1 23:24:22 56° SE 23:24:57 60° E 23:30:16 10° NNE
Cosmos 2237 Rocket 4.2 23:21:16 10° N 23:25:04 18° NE 23:27:50 13° E
SL-16 R/B 3.5 23:23:34 10° NW 23:28:25 30° WSW 23:30:19 24° SW
Nadezhda 4 Rocket 4.0 23:23:31 10° N 23:29:49 80° W 23:31:47 47° S
Cosmos 836 Rocket 4.3 23:31:57 66° S 23:32:42 84° ESE 23:37:56 10° NNE
SPOT 5 4.2 23:33:18 22° WSW 23:34:21 25° W 23:38:01 10° NW
Cosmos 2237 4.1 23:34:04 10° NNW 23:39:50 84° WSW 23:40:45 64° S
CZ-2C R/B 3.2 23:41:02 58° SSW 23:41:54 69° WSW 23:47:24 10° NNW
SJ 16-02 1.5 23:37:45 10° NNW 23:42:00 68° W 23:42:00 68° W
Cosmos 2219 3.7 23:44:28 45° E 23:44:28 45° E 23:49:36 10° NE
ADEOS Rocket 4.4 23:40:58 10° NE 23:44:21 19° E 23:44:21 19° E
CENTAUR R/B 3.1 23:42:28 10° SW 23:48:22 57° NW 23:55:12 10° NNE
Cosmos 1726 Rocket 4.2 23:44:32 10° N 23:48:18 46° NE 23:48:18 46° NE
Mayak 0.7 23:48:06 10° NE 23:50:06 20° ENE 23:50:06 20° ENE
Cosmos 2058 Rocket 4.1 23:48:14 10° N 23:52:00 37° ENE 23:52:00 37° ENE
